Change the Weather History Date:

Friday, November 18, 2011

  Actual Average Record
Temperature  
Mean Temperature 34 °F 42 °F  
Max Temperature 42 °F 50 °F 77 °F (1921)
Min Temperature 25 °F 34 °F 8 °F (1959)
Degree Days  
Heating Degree Days 31 23  
Month to date heating degree days 324 357  
Since 1 July heating degree days 783 858  
Cooling Degree Days 0 0  
Month to date cooling degree days 0 0  
Year to date cooling degree days 1009 736  
Moisture  
Dew Point 15 °F    
Average Humidity 46    
Maximum Humidity 63    
Minimum Humidity 29    
Precipitation  
Precipitation 0.00 in 0.12 in 0.98 in (1957)
Month to date precipitation 1.67 1.90  
Year to date precipitation 39.69 34.01  
Snow  
Snow 0.00 in 0.10 in 2.00 in (1884)
Month to date snowfall T 0.9  
Since 1 July snowfall 1.6 1.3  
Snow Depth 0.00 in    
Sea Level Pressure  
Sea Level Pressure 30.36 in    
Wind  
Wind Speed 7 mph (SSW)    
Max Wind Speed 14 mph    
Max Gust Speed 18 mph    
Visibility 10 miles    
Events      
T = Trace of Precipitation, MM = Missing Value Source: NWS Daily Summary

Daily Weather History Graph

Daily Weather History Graph

Search for Another Location

Airport or City:

Trip Planner

Search our weather history database for the weather conditions in past years. The results will help you decide how hot, cold, wet, or windy it might be!

Date:

Astronomy

Nov. 18, 2011 Rise Set
Actual Time 7:10 AM EST 5:01 PM EST
Civil Twilight 6:40 AM EST 5:30 PM EST
Nautical Twilight 6:07 AM EST 6:03 PM EST
Astronomical Twilight 5:35 AM EST 6:36 PM EST
Moon No Moon Rise 12:48 PM EST (11/18)
Length of Visible Light 10h 49m
Length of Day
9h 51m
Waning Gibbous, 49% of the Moon is Illuminated
Nov 18
Waning Gibbous
Nov 25
New
Dec 2
First Quarter
Dec 10
Full
Dec 17
Last Quarter

Hourly Weather History & Observations

Time (EST) Temp. Windchill Dew Point Humidity Pressure Visibility Wind Dir Wind Speed Gust Speed Precip Events Conditions
1:51 AM 28.9 °F 22.8 °F 15.1 °F 56% 30.32 in 10.0 mi WSW 5.8 mph - N/A   Clear
2:51 AM 28.0 °F 21.7 °F 15.1 °F 58% 30.35 in 10.0 mi WSW 5.8 mph - N/A   Clear
3:51 AM 26.6 °F 20.0 °F 15.8 °F 64% 30.31 in 10.0 mi WSW 5.8 mph - N/A   Clear
4:51 AM 27.0 °F 19.5 °F 15.1 °F 61% 30.40 in 10.0 mi WSW 6.9 mph - N/A   Clear
5:51 AM 25.0 °F 20.7 °F 14.0 °F 63% 30.40 in 10.0 mi West 3.5 mph - N/A   Clear
6:51 AM 26.6 °F 19.1 °F 14.0 °F 59% 30.36 in 10.0 mi WSW 6.9 mph - N/A   Clear
7:51 AM 26.1 °F 19.4 °F 14.0 °F 60% 30.45 in 10.0 mi WSW 5.8 mph - N/A   Clear
8:51 AM 28.9 °F 21.1 °F 14.0 °F 54% 30.46 in 10.0 mi SW 8.1 mph - N/A   Partly Cloudy
9:51 AM 32.0 °F 24.8 °F 12.2 °F 44% 30.40 in 10.0 mi WSW 8.1 mph - N/A   Partly Cloudy
10:51 AM 35.1 °F 28.6 °F 12.0 °F 39% 30.45 in 10.0 mi SSW 8.1 mph - N/A   Partly Cloudy
11:51 AM 37.9 °F 30.9 °F 14.0 °F 38% 30.44 in 10.0 mi SSW 10.4 mph - N/A   Partly Cloudy
12:51 PM 39.9 °F 32.5 °F 12.9 °F 33% 30.41 in 10.0 mi SSW 12.7 mph - N/A   Partly Cloudy
1:51 PM 41.0 °F 34.7 °F 14.0 °F 33% 30.39 in 10.0 mi South 10.4 mph 17.3 mph N/A   Partly Cloudy
2:51 PM 42.1 °F 36.1 °F 12.9 °F 31% 30.38 in 10.0 mi South 10.4 mph - N/A   Partly Cloudy
3:51 PM 42.1 °F 35.7 °F 12.9 °F 31% 30.36 in 10.0 mi South 11.5 mph 17.3 mph N/A   Scattered Clouds
4:51 PM 39.9 °F 36.7 °F 14.0 °F 35% 30.35 in 10.0 mi South 4.6 mph - N/A   Mostly Cloudy
5:51 PM 37.0 °F 33.3 °F 16.0 °F 42% 30.34 in 10.0 mi SSE 4.6 mph - N/A   Scattered Clouds
6:51 PM 36.0 °F 31.1 °F 16.0 °F 44% 30.32 in 10.0 mi SSE 5.8 mph - N/A   Scattered Clouds
7:51 PM 35.1 °F 31.0 °F 16.0 °F 46% 30.31 in 10.0 mi South 4.6 mph - N/A   Partly Cloudy
8:51 PM 33.8 °F 28.6 °F 15.8 °F 48% 30.23 in 10.0 mi SSE 5.8 mph - N/A   Partly Cloudy
9:51 PM 33.1 °F 27.7 °F 17.1 °F 52% 30.27 in 10.0 mi SSE 5.8 mph - N/A   Mostly Cloudy
10:51 PM 34.0 °F 31.0 °F 16.0 °F 48% 30.25 in 10.0 mi SSE 3.5 mph - N/A   Mostly Cloudy
11:51 PM 35.1 °F 31.0 °F 16.0 °F 46% 30.25 in 10.0 mi South 4.6 mph - N/A   Overcast